Home   Weather   Worms   Past weeks

Flag for Germany Past Weather in Worms, Rhineland-Palatinate, Germany — Yesterday and Last 2 Weeks

Now
16 °F

Ice fog.


Feels Like: 16 °F
Forecast: 22 / 29 °F
Wind: No wind

Location: Wiesbaden Airport

Current Time: Jan 23, 2017 at 5:34:44 am

Latest Report: Jan 23, 2017 at 4:58 am


Visibility: 6 mi

Pressure: 30.32 "Hg

Humidity: 87%

Dew Point: 13 °F

Location of WormsLocation

Past Weather in Worms — Graph

°F

Worms Temperature Yesterday

Maximum temperature yesterday: 34 °F (at 2:58 pm)
Minimum temperature yesterday: 17 °F (at 8:58 am)
Average temperature yesterday: 25 °F

High & Low Weather Summary for the Past Weeks

 TemperatureHumidityPressure
High43 °F (Jan 13, 2:06 am)100% (Jan 8, 11:34 am)30.69 "Hg (Jan 8, 11:34 am)
Low16 °F (Jan 23, 3:58 am)20% (Jan 20, 1:58 pm)29.13 "Hg (Jan 13, 2:06 am)
Average32 °F83%30.11 "Hg
* Reported Jan 8 3:58 am — Jan 23 3:58 am, Worms, Weather by CustomWeather, © 2017

Note: Actual official high and low records may vary slightly from our data, if they occured in-between our weather recording intervals... More about our weather records

Advertising

Worms Weather History for the Previous 24 Hours

Scroll right to see more
 ConditionsComfort  
Time TempWeatherWind HumidityBarometerVisibility
3:58 am
Mon, Jan 23
16 °FClear.3 mph85%30.32 "HgN/A
2:58 am18 °FClear.No wind86%30.32 "HgN/A
1:58 am17 °FClear.3 mph86%30.32 "HgN/A
12:58 am19 °FClear.No wind79%30.33 "HgN/A
11:58 pm
Sun, Jan 22
21 °FClear.5 mph80%30.33 "HgN/A
10:58 pm23 °FClear.No wind74%30.33 "HgN/A
9:58 pm23 °FClear.3 mph80%30.32 "HgN/A
8:58 pm26 °FClear.No wind71%30.32 "HgN/A
7:58 pm26 °FClear.5 mph71%30.32 "HgN/A
6:58 pm28 °FClear.5 mph66%30.31 "HgN/A
5:58 pm30 °FClear.3 mph64%30.31 "HgN/A
4:58 pm31 °FSunny.3 mph61%30.30 "HgN/A
3:58 pm32 °FSunny.7 mph60%30.30 "HgN/A
2:58 pm34 °FSunny.7 mph51%30.31 "HgN/A
1:58 pm33 °FSunny.7 mph55%30.32 "HgN/A
12:58 pm32 °FSunny.7 mph55%30.33 "HgN/A
11:58 am30 °FSunny.9 mph64%30.35 "HgN/A
10:58 am27 °FSunny.No wind69%30.37 "HgN/A
9:58 am21 °FSunny.No wind80%30.37 "HgN/A
8:58 am17 °FSunny.No wind83%30.37 "HgN/A
7:58 am18 °FClear.No wind84%30.36 "HgN/A
6:58 am18 °FClear.3 mph86%30.37 "HgN/A
5:58 am19 °FClear.No wind79%30.38 "HgN/A
Weather by CustomWeather, © 2017

See weather overviewHow to use our weather pages